{"data":{"norad_id":56015,"epoch":"2026-09-20T09:05:08.568960Z","epoch_age_seconds":116568,"freshness":"FRESH","line1":"1 56015U 23042AF  26263.37857140 -.00000322  00000+0 -21908-5 0  9995","line2":"2 56015  43.0038  25.4766 0001244 269.0270  91.0439 15.27576287192811","mean_motion":15.27576287,"eccentricity":0.0001244,"inclination_deg":43.0038,"raan_deg":25.4766,"arg_perigee_deg":269.027,"mean_anomaly_deg":91.0439,"bstar":-2.1908e-6,"rev_number":19281,"period_min":94.266977842921,"perigee_km":482.20668118648,"apogee_km":483.91374705335,"semimajor_km":6861.1972141199,"source":"CELESTRAK","updated_at":"2026-09-21T09:00:33.355191Z"}}